N7DTY Weather Reports


time (UTC)temp
C
wind
direction
speed
KPH
gust
KPH
rain 1hr
cm
rain 24hr
cm
rain mn
cm
humidity
%
barometer
mb
20260901023057 18 294 0.0 0.0 0.00 0.00 0.00 73 1008.3
20260901021557 18 294 0.0 1.6 0.00 0.00 0.00 71 1008.4
20260901020058 19 294 0.0 0.0 0.00 0.00 0.00 69 1008.5
20260901014554 19 294 0.0 4.8 0.00 0.00 0.00 66 1008.6
20260901013100 20 309 0.0 3.2 0.00 0.00 0.00 66 1008.6
20260901011553 20 339 0.0 4.8 0.00 0.00 0.00 64 1008.7
20260901010056 20 341 0.0 8.0 0.00 0.00 0.00 63 1008.7
20260901004554 20 348 1.6 9.7 0.00 0.00 0.00 63 1008.7
20260901003051 21 244 1.6 9.7 0.00 0.00 0.00 61 1008.9
20260901001549 21 228 0.0 6.4 0.00 0.00 0.00 59 1009.0
20260901000057 22 11 1.6 11.3 0.00 0.00 0.00 59 1009.1
20260831234547 22 37 3.2 12.9 0.00 0.00 0.00 59 1009.3
20260831233044 22 89 1.6 12.9 0.00 0.00 0.00 61 1009.6
20260831231547 22 265 1.6 8.0 0.00 0.00 0.00 60 1009.7
20260831230043 23 27 1.6 9.7 0.00 0.00 0.00 59 1009.7
20260831224540 22 10 3.2 12.9 0.00 0.00 0.00 59 1009.8
20260831223039 22 20 4.8 9.7 0.00 0.00 0.00 62 1010.1
20260831221537 22 331 1.6 11.3 0.00 0.00 0.00 64 1010.2
20260831220036 23 27 3.2 12.9 0.00 0.00 0.00 60 1010.3
20260831214533 22 41 3.2 11.3 0.00 0.00 0.00 63 1010.6
20260831213034 21 44 3.2 14.5 0.00 0.00 0.00 69 1010.7
20260831211533 22 103 1.6 8.0 0.00 0.00 0.00 66 1010.9
20260831210130 22 271 1.6 9.7 0.00 0.00 0.00 62 1011.1
20260831204534 23 123 1.6 11.3 0.00 0.00 0.00 63 1011.1
20260831203028 22 55 3.2 9.7 0.00 0.00 0.00 63 1011.3
20260831201524 22 85 3.2 12.9 0.00 0.00 0.00 62 1011.5
20260831200024 23 142 3.2 9.7 0.00 0.00 0.00 58 1011.8
20260831194519 23 19 0.0 9.7 0.00 0.00 0.00 55 1011.9
20260831193023 22 5 4.8 14.5 0.00 0.00 0.00 58 1012.2
20260831191515 22 13 3.2 6.4 0.00 0.00 0.00 55 1012.3
20260831190011 21 18 6.4 14.5 0.00 0.00 0.00 59 1012.7
20260831184510 21 348 1.6 16.1 0.00 0.00 0.00 62 1012.8
20260831183006 21 46 3.2 9.7 0.00 0.00 0.00 63 1013.0
20260831181503 20 5 8.0 14.5 0.00 0.00 0.00 63 1013.2
20260831180100 19 349 9.7 16.1 0.00 0.00 0.00 64 1013.3
20260831174556 18 351 4.8 19.3 0.00 0.00 0.00 68 1013.5
20260831173053 18 355 9.7 17.7 0.00 0.00 0.00 69 1013.6
20260831171549 17 360 1.6 19.3 0.00 0.00 0.00 71 1013.6
20260831170045 17 13 3.2 12.9 0.00 0.00 0.00 73 1013.7
20260831164541 16 92 3.2 8.0 0.00 0.00 0.00 77 1013.7
20260831163038 15 329 3.2 16.1 0.00 0.00 0.00 79 1013.7
20260831161535 14 17 1.6 8.0 0.00 0.00 0.00 82 1013.7
20260831160035 13 325 3.2 9.7 0.00 0.00 0.00 84 1014.0
20260831154527 13 342 4.8 8.0 0.00 0.00 0.00 86 1014.2
20260831153022 12 355 3.2 8.0 0.00 0.00 0.00 88 1014.1
20260831151522 12 61 0.0 8.0 0.00 0.00 0.00 88 1014.2
20260831150021 12 347 3.2 6.4 0.00 0.00 0.00 89 1014.0
20260831144520 11 345 3.2 8.0 0.00 0.00 0.00 91 1014.0
20260831143019 11 355 3.2 8.0 0.00 0.00 0.00 91 1014.0
20260831141518 10 326 3.2 6.4 0.00 0.00 0.00 93 1013.9
20260831140017 10 355 0.0 3.2 0.00 0.00 0.00 92 1014.0
20260831134515 10 355 1.6 4.8 0.00 0.00 0.00 91 1014.0
20260831133017 10 355 0.0 1.6 0.00 0.00 0.00 90 1014.1
20260831131520 10 355 0.0 3.2 0.00 0.00 0.00 91 1014.0
20260831130009 10 355 0.0 3.2 0.00 0.00 0.00 90 1014.2
20260831124508 11 351 3.2 4.8 0.00 0.00 0.00 90 1014.2
20260831123006 11 355 3.2 4.8 0.00 0.00 0.00 89 1014.4
20260831121513 11 355 0.0 4.8 0.00 0.00 0.00 88 1014.4
20260831120007 11 355 3.2 8.0 0.00 0.00 0.00 88 1014.6
20260831114505 11 336 3.2 6.4 0.00 0.00 0.00 89 1014.6
20260831113001 11 355 1.6 4.8 0.00 0.00 0.00 88 1014.7
20260831111602 11 355 3.2 4.8 0.00 0.00 0.00 89 1014.9
20260831110106 11 355 1.6 4.8 0.00 0.00 0.00 88 1014.9
20260831104558 11 351 4.8 6.4 0.00 0.00 0.00 88 1015.0
20260831103055 11 317 3.2 4.8 0.00 0.00 0.00 89 1015.1
20260831101554 11 182 1.6 3.2 0.00 0.00 0.00 89 1015.2
20260831100051 11 182 0.0 0.0 0.00 0.00 0.00 89 1015.4
20260831094550 11 182 1.6 4.8 0.00 0.00 0.00 89 1015.4
20260831093049 11 182 1.6 4.8 0.00 0.00 0.00 89 1015.6
20260831091554 11 182 3.2 4.8 0.00 0.00 0.00 89 1016.0
20260831090043 11 182 1.6 3.2 0.00 0.00 0.00 89 1016.2
20260831084542 11 182 0.0 0.0 0.00 0.00 0.00 89 1016.3
20260831083042 11 182 0.0 0.0 0.00 0.00 0.00 88 1016.4
20260831081539 11 182 0.0 0.0 0.00 0.00 0.00 88 1016.5
20260831080037 12 182 0.0 0.0 0.00 0.00 0.00 88 1016.6
20260831074535 12 182 0.0 1.6 0.00 0.00 0.00 88 1016.7
20260831073031 12 182 0.0 1.6 0.00 0.00 0.00 87 1017.0
20260831071533 12 182 0.0 0.0 0.00 0.00 0.00 86 1017.0
20260831070030 12 182 0.0 1.6 0.00 0.00 0.00 86 1017.0
20260831064528 12 182 0.0 0.0 0.00 0.00 0.00 86 1017.0
20260831063027 12 182 0.0 0.0 0.00 0.00 0.00 85 1017.2
20260831061526 12 182 0.0 1.6 0.00 0.00 0.00 86 1017.3
20260831060026 12 182 0.0 1.6 0.00 0.00 0.00 85 1017.4
20260831054524 13 182 0.0 1.6 0.00 0.00 0.00 85 1017.5
20260831053023 13 182 0.0 1.6 0.00 0.00 0.00 85 1017.6
20260831051524 13 182 0.0 0.0 0.00 0.00 0.00 85 1017.6
20260831050022 13 182 0.0 3.2 0.00 0.00 0.00 85 1017.8
20260831044519 13 182 0.0 1.6 0.00 0.00 0.00 84 1017.8
20260831043018 14 182 0.0 0.0 0.00 0.00 0.00 83 1018.1
20260831041541 15 182 0.0 0.0 0.00 0.00 0.00 81 1018.1
20260831040018 15 182 0.0 1.6 0.00 0.00 0.00 80 1018.2
20260831034517 15 182 0.0 0.0 0.00 0.00 0.00 78 1018.1
20260831033022 16 182 0.0 0.0 0.00 0.00 0.00 75 1017.9
20260831031515 16 182 0.0 0.0 0.00 0.00 0.00 74 1017.9
20260831030016 17 182 0.0 0.0 0.00 0.00 0.00 72 1017.9
20260831024515 17 182 0.0 0.0 0.00 0.00 0.00 74 1017.9